Location: Marcé
(47.5801°N, 0.3280°W)
Time: 06:48:04
(UTC+01:00)

Altair - Pass Details

Date: 13 December 2021
Orbit: 1501 x 1683 km, 47.2° (Epoch: 21 January)

Event Time Altitude Azimuth Distance (km) Brightness Sun altitude
Rises 12:31:27 0° 199° (SSW) 4,871 11.3 19.0°
Reaches altitude 10° 12:35:11 10° 188° (S) 3,863 11.5 19.1°
Maximum altitude 12:43:05 29° 134° (SE) 2,634 9.7 19.2°
Drops below altitude 10° 12:50:45 10° 80° (E) 3,757 9.5 19.2°
Sets 12:54:18 0° 70° (ENE) 4,718 9.9 19.2°
